Location: Grieser Field
(39.7333°N, 81.7975°W)
Time: 02:47:42
(UTC-04:00)

Daily predictions for brighter satellites

Satellite Brightness Start Highest point End
(mag) Time Altitude Azimuth Time Altitude Azimuth Time Altitude Azimuth
Lacrosse 5 3.9 00:10:46 10° NNW 00:13:24 24° N 00:13:24 24° N
CZ-2C R/B 4.2 00:14:02 10° N 00:16:47 32° N 00:16:47 32° N
CZ-4C R/B 3.8 00:26:51 29° NNE 00:26:51 29° NNE 00:29:57 10° NNE
ATLAS 5 CENTAUR R/B 3.6 00:27:22 10° NNW 00:31:12 38° N 00:31:12 38° N
ADEOS Rocket 4.2 01:09:40 10° NNE 01:14:09 42° NNE 01:14:09 42° NNE
Cosmos 1943 Rocket 4.2 01:11:49 10° NNW 01:13:38 21° NW 01:13:38 21° NW
Mayak 2.0 01:14:26 10° N 01:14:37 11° N 01:14:37 11° N
Resurs 1-4 Rocket 4.2 02:29:31 10° NE 02:32:02 19° ENE 02:32:02 19° ENE
Cosmos 2034 Rocket 4.4 03:17:52 56° NNW 03:17:52 56° NNW 03:22:53 10° N
Cosmos 2278 4.3 03:14:20 10° NNW 03:18:44 51° N 03:18:44 51° N
Cosmos 1980 Rocket 3.8 03:22:20 10° N 03:27:20 32° ENE 03:32:18 10° ESE
Cosmos 1607 4.0 03:29:40 78° N 03:29:40 78° N 03:35:45 10° NNE
Cosmos 1697 Rocket 3.1 03:25:18 10° NNW 03:30:55 58° ENE 03:31:12 57° ENE
CZ-2D R/B 2.6 03:25:32 10° NNE 03:30:01 60° NE 03:30:01 60° NE
Cosmos 1092 Rocket 4.0 03:26:28 10° N 03:32:43 78° E 03:32:43 78° E
Cosmos 2082 Rocket 2.4 03:35:02 66° NE 03:35:02 66° NE 03:39:52 10° NNE
SL-16 R/B 2.5 03:34:38 81° NNW 03:34:38 81° NNW 03:40:36 10° NNW
Lacrosse 4 Rocket 3.2 03:31:01 10° NNW 03:33:35 30° N 03:33:35 30° N
Cosmos 1867 4.0 03:31:59 10° NNW 03:37:25 60° NE 03:37:36 60° ENE
Meteor 1-15 Rocket 4.4 03:37:09 10° NNW 03:42:21 68° NNW 03:42:21 68° NNW
ARIANE 5 R/B 2.9 03:38:43 10° NNE 03:43:38 60° E 03:43:38 60° E
Iridium 4 Rocket 4.4 03:47:03 36° N 03:47:03 36° N 03:49:43 10° N
Cosmos 967 Rocket 4.4 03:41:12 10° NNW 03:47:14 76° WNW 03:47:14 76° WNW
IRS-1C 4.3 03:42:58 10° N 03:47:36 65° NNW 03:47:36 65° NNW
APEX 4.4 03:50:36 77° SW 03:51:06 84° WNW 03:57:17 10° NNE
Cosmos 1627 Rocket 4.4 03:52:39 10° N 03:59:04 86° E 04:00:26 58° SSE
ADEOS II 3.6 03:57:42 10° NE 04:02:20 31° E 04:04:45 21° SE
Okean 1-7 Rocket 4.0 04:03:00 61° NE 04:03:00 61° NE 04:06:57 10° NNE
Cosmos 1356 Rocket 4.2 04:05:50 48° NE 04:05:50 48° NE 04:08:58 10° NNE
IRS-1D 3.7 04:01:05 10° N 04:05:48 61° NW 04:05:48 61° NW
CZ-2D R/B 4.1 04:04:38 10° NNE 04:08:19 52° E 04:08:19 52° E
ADEOS 3.9 04:03:45 10° NNE 04:08:55 60° ESE 04:09:56 50° SSE
Cosmos 1544 4.4 04:08:17 10° N 04:10:42 37° NNE 04:10:42 37° NNE
Resurs 1-4 Rocket 2.6 04:08:33 10° N 04:13:07 43° WNW 04:13:07 43° WNW
Cosmos 1833 Rocket 3.3 04:14:17 42° WNW 04:14:22 42° WNW 04:19:42 10° N
Cosmos 2058 Rocket 4.3 04:14:26 10° N 04:18:38 40° ENE 04:21:28 18° SE
Cosmos 1634 Rocket 4.0 04:18:31 53° WSW 04:19:06 56° W 04:25:15 10° N
Helios 1A Rocket 3.2 04:15:17 10° N 04:18:53 65° N 04:18:53 65° N
Lacrosse 5 rocket 2.4 04:21:36 37° NNW 04:21:36 37° NNW 04:25:09 10° NNE
Cosmos 1766 3.9 04:19:44 10° N 04:23:32 52° E 04:24:03 48° ESE
Cosmos 1606 Rocket 3.3 04:25:50 10° N 04:30:09 83° W 04:30:09 83° W
SL-8 R/B 4.3 04:31:59 41° SSE 04:31:59 41° SSE 04:35:18 10° SE
Cosmos 2360 4.1 04:25:18 10° NNW 04:31:00 81° WSW 04:36:41 10° SSE
Cosmos 2279 Rocket 3.9 04:32:47 44° SSW 04:34:51 71° W 04:41:08 10° N
Cosmos 2228 3.2 04:31:24 10° N 04:35:40 68° E 04:37:29 33° SSE
Cosmos 1892 Rocket 3.4 04:39:59 64° SW 04:40:36 78° W 04:45:02 10° N
Cosmos 2026 Rocket 4.3 04:39:43 10° NNW 04:45:44 45° W 04:47:24 37° SW
SJ 16-02 4.3 04:42:44 10° NNE 04:45:49 18° ENE 04:48:54 10° ESE
Meteor 1-21 4.2 04:47:14 26° S 04:50:34 86° E 04:56:14 10° N
ATLAS 3B R/B 3.1 04:47:02 23° SSW 04:51:41 63° ESE 04:58:33 10° NE
COSMOS 2487 4.1 04:52:33 23° NW 04:52:33 23° NW 04:54:44 10° N
NOSS 3-2 (A) 4.4 04:50:07 16° S 04:54:24 40° ESE 05:00:16 10° NE
Cosmos 1763 Rocket 3.4 04:53:31 35° SSW 04:55:49 81° WNW 05:01:10 10° NNE
Timation 2 Rocket 3.9 04:52:46 28° SSW 04:56:09 84° ESE 05:02:09 10° NNE
Cosmos 1898 Rocket 3.6 04:59:09 10° NNW 05:04:11 51° WSW 05:09:14 10° S
Cosmos 1733 4.3 05:01:05 10° N 05:04:49 45° E 05:08:32 10° SSE
Cosmos 2360 Rocket 4.3 05:03:56 10° N 05:08:49 29° ENE 05:13:40 10° ESE
USA 215 3.2 05:03:27 10° NE 05:10:01 80° NW 05:14:17 24° SW
UNKNOWN OBJECT B 3.9 05:06:55 10° NNW 05:10:09 25° WNW 05:10:18 25° WNW
CZ-2D R/B 3.9 05:07:24 10° NNW 05:10:19 15° WNW 05:11:21 14° WNW
Cosmos 1980 Rocket 2.7 05:06:15 10° NW 05:11:19 36° WSW 05:15:16 15° SSW
Cosmos 1655 Rocket 4.4 05:05:58 10° NNW 05:11:53 42° W 05:16:05 19° SSW
Transit 2A Rocket 4.4 05:07:27 10° NNW 05:11:58 84° WSW 05:16:15 10° SSE
Okean O Rocket 3.6 05:09:36 10° NE 05:13:21 27° E 05:17:04 10° SSE
Cosmos 1697 Rocket 4.2 05:10:32 10° WNW 05:12:50 17° W 05:12:50 17° W
Cosmos 1937 Rocket 3.5 05:12:36 10° NNW 05:17:40 54° WSW 05:22:39 10° S
SL-16 R/B 4.3 05:19:42 12° WNW 05:19:42 12° WNW 05:21:09 10° WNW
Cosmos 2082 Rocket 4.0 05:16:53 13° WNW 05:19:02 15° NW 05:22:18 10° NNW
Cosmos 1470 3.6 05:15:41 10° N 05:19:36 53° E 05:23:28 10° SSE
Cosmos 2266 Rocket 3.9 05:14:35 10° NNW 05:20:38 71° W 05:26:44 10° S
SL-16 R/B 2.2 05:16:05 10° NNW 05:21:48 89° ENE 05:27:28 10° SSE
ARIANE 5 R/B 4.2 05:19:12 10° NNW 05:22:30 17° WNW 05:23:58 15° W
DNEPR-1 R/B 3.6 05:29:30 16° SSW 05:32:47 77° ESE 05:37:17 10° NE
Cosmos 990 Rocket 4.5 05:31:24 10° NW 05:36:05 36° W 05:40:45 10° SSW
Cosmos 2150 Rocket 4.3 05:32:09 10° NNW 05:37:26 51° WSW 05:42:40 10° S
Cosmos 2322 Rocket 2.1 05:33:06 10° NNW 05:38:44 70° WSW 05:44:18 10° SSE
Aureole 2 Rocket 4.1 05:35:48 10° N 05:39:27 40° ENE 05:42:52 10° SE
Cosmos 292 Rocket 3.9 05:36:09 15° SW 05:40:06 56° WNW 05:44:51 10° N
Cosmos 1707 2.8 05:37:21 10° S 05:41:12 82° E 05:45:06 10° N
ADEOS II 3.0 05:37:23 10° N 05:41:59 32° WNW 05:45:42 14° WSW
USA 267 4.2 05:37:30 10° ESE 05:43:45 50° NE 05:50:00 10° NW
Cosmos 2298 Rocket 4.5 05:38:52 10° NW 05:43:46 38° WSW 05:48:38 10° SSW
Cosmos 1953 2.3 05:39:48 10° NNW 05:43:50 61° W 05:47:49 10° S
PSLV R/B 3.7 05:44:31 10° N 05:48:22 66° WNW 05:52:06 10° SSW
PSLV R/B 3.9 05:45:21 10° N 05:49:22 44° WNW 05:53:21 10° SW
USA 238 DEB 4.0 05:43:52 14° SW 05:49:42 53° NW 05:56:30 10° NNE
USA 238 4.0 05:43:57 14° SW 05:49:47 53° NW 05:56:37 10° NNE
ERBS 4.3 05:47:11 10° S 05:50:00 25° SE 05:52:51 10° ENE
Cosmos 372 Rocket 4.2 05:45:22 10° NNW 05:50:37 78° ENE 05:55:48 10° SSE
Meteor 1-31 Rocket 3.2 05:47:56 10° NNE 05:51:49 64° ESE 05:55:37 10° S
Cosmos 1812 Rocket 3.7 05:51:30 10° NNW 05:55:54 57° W 06:00:14 10° S
Cosmos 1378 3.6 05:53:38 10° SSW 05:57:10 41° W 06:00:45 10° N
Cosmos 1602 Rocket 4.3 05:56:04 10° SW 05:59:59 33° WNW 06:03:54 10° NNW
CZ-4B R/B 3.4 05:55:31 10° NNE 06:01:08 77° ESE 06:06:35 10° S
Lacrosse 5 rocket 4.0 06:01:14 10° NNW 06:01:28 10° NNW 06:01:40 10° NNW
Cosmos 44 3.9 05:59:17 10° NW 06:04:12 40° WSW 06:09:12 10° S
CRYOSAT 2 4.3 06:00:55 10° S 06:05:43 67° W 06:10:35 10° N
Cosmos 1758 Rocket 3.7 06:01:35 10° S 06:05:52 78° E 06:10:13 10° N
Cosmos 2322 4.0 06:11:53 10° NNW 06:17:38 77° ENE 06:23:21 10° SSE
